• In Latvia
  • List of Countries
  • For 7 days
  • Water Temperature
  • Satellite Maps
  • Weather Map
  • Weather Widgets
  • user-avatar
    Login

    Hourly Weather Smoniowice

    Today, 24 October, Wednesday

    Time Temperature Precipitation Wind Pressure Humidity
    00:00 +7°C° 1 mm 9 mps 727 mmHg 79%
    01:00 +8°C° 1 mm 9 mps 727 mmHg 78%
    02:00 +7°C° 0.3 mm 9 mps 727 mmHg 77%
    03:00 +7°C° 0.3 mm 9 mps 726 mmHg 75%
    04:00 +6°C° 0.3 mm 9 mps 726 mmHg 74%
    05:00 +5°C° 0.3 mm 9 mps 727 mmHg 72%
    06:00 +5°C° 0.3 mm 9 mps 727 mmHg 70%
    07:00 +3°C° 0.3 mm 10 mps 727 mmHg 68%
    08:00 +5°C° 0.2 mm 10 mps 728 mmHg 63%
    09:00 +5°C° 0.2 mm 10 mps 729 mmHg 58%
    10:00 +4°C° 0.2 mm 11 mps 729 mmHg 52%
    11:00 +4°C° 0.1 mm 11 mps 730 mmHg 49%
    12:00 +4°C° 0.1 mm 11 mps 730 mmHg 46%
    13:00 +4°C° 0.1 mm 11 mps 731 mmHg 43%
    14:00 +5°C° 0 mm 10 mps 731 mmHg 45%
    15:00 +5°C° 0 mm 9 mps 732 mmHg 46%
    16:00 +5°C° 0 mm 8 mps 732 mmHg 47%
    17:00 +4°C° 0 mm 8 mps 733 mmHg 49%
    18:00 +4°C° 0 mm 7 mps 734 mmHg 52%
    19:00 +3°C° 0 mm 7 mps 734 mmHg 54%
    20:00 +3°C° 0 mm 7 mps 735 mmHg 56%
    21:00 +3°C° 0 mm 7 mps 735 mmHg 58%
    22:00 +2°C° 0 mm 6 mps 736 mmHg 61%
    23:00 +2°C° 0 mm 6 mps 736 mmHg 63%

    Tomorrow, 25 October, Thursday

    Time Temperature Precipitation Wind Pressure Humidity
    00:00 +2°C° 0 mm 6 mps 736 mmHg 65%
    01:00 +2°C° 0 mm 6 mps 737 mmHg 68%
    02:00 +1°C° 0 mm 5 mps 737 mmHg 71%
    03:00 +1°C° 0 mm 5 mps 737 mmHg 74%
    04:00 +1°C° 0 mm 5 mps 737 mmHg 77%
    05:00 +2°C° 0.1 mm 5 mps 736 mmHg 76%
    06:00 +2°C° 0.1 mm 5 mps 736 mmHg 76%
    07:00 +3°C° 0.1 mm 5 mps 735 mmHg 75%
    08:00 +3°C° 0.6 mm 6 mps 735 mmHg 77%
    09:00 +4°C° 0.6 mm 6 mps 734 mmHg 80%
    10:00 +4°C° 0.6 mm 7 mps 733 mmHg 83%
    11:00 +6°C° 0.4 mm 7 mps 733 mmHg 82%
    12:00 +7°C° 0.4 mm 8 mps 732 mmHg 81%
    13:00 +10°C° 0.4 mm 9 mps 732 mmHg 81%
    14:00 +8°C° 0.2 mm 9 mps 732 mmHg 81%
    15:00 +8°C° 0.2 mm 9 mps 732 mmHg 81%
    16:00 +9°C° 0.2 mm 8 mps 732 mmHg 80%
    17:00 +9°C° 0.2 mm 8 mps 732 mmHg 80%
    18:00 +9°C° 0.2 mm 8 mps 733 mmHg 79%
    19:00 +9°C° 0.2 mm 8 mps 733 mmHg 79%
    20:00 +8°C° 0.1 mm 7 mps 733 mmHg 79%
    21:00 +7°C° 0.1 mm 6 mps 734 mmHg 79%
    22:00 +6°C° 0.1 mm 5 mps 734 mmHg 80%
    23:00 +6°C° 0 mm 5 mps 734 mmHg 80%

    Day after tomorrow, 26 October, Friday

    Time Temperature Precipitation Wind Pressure Humidity
    00:00 +6°C° 0 mm 5 mps 734 mmHg 81%
    01:00 +5°C° 0 mm 5 mps 735 mmHg 82%
    02:00 +5°C° 0 mm 5 mps 735 mmHg 83%
    03:00 +5°C° 0 mm 5 mps 735 mmHg 84%
    04:00 +3°C° 0 mm 5 mps 735 mmHg 85%
    05:00 +4°C° 0 mm 4 mps 735 mmHg 86%
    06:00 +4°C° 0 mm 4 mps 735 mmHg 88%
    07:00 +4°C° 0 mm 4 mps 735 mmHg 89%
    08:00 +6°C° 0 mm 5 mps 735 mmHg 82%
    09:00 +7°C° 0 mm 5 mps 735 mmHg 75%
    10:00 +8°C° 0 mm 6 mps 735 mmHg 68%
    11:00 +9°C° 0 mm 5 mps 735 mmHg 68%
    12:00 +10°C° 0 mm 5 mps 734 mmHg 67%
    13:00 +10°C° 0 mm 5 mps 734 mmHg 66%
    14:00 +11°C° 0 mm 4 mps 734 mmHg 69%
    15:00 +11°C° 0 mm 4 mps 733 mmHg 72%
    16:00 +10°C° 0 mm 3 mps 733 mmHg 75%
    17:00 +10°C° 0 mm 3 mps 732 mmHg 78%
    18:00 +8°C° 0 mm 4 mps 732 mmHg 80%
    19:00 +8°C° 0 mm 4 mps 732 mmHg 83%
    20:00 +8°C° 0 mm 4 mps 732 mmHg 83%
    21:00 +8°C° 0 mm 4 mps 732 mmHg 83%
    22:00 +8°C° 0 mm 5 mps 732 mmHg 84%
    23:00 +7°C° 0 mm 5 mps 731 mmHg 84%

    27 October, Saturday

    Time Temperature Precipitation Wind Pressure Humidity
    00:00 +7°C° 0 mm 5 mps 731 mmHg 84%
    01:00 +7°C° 0 mm 5 mps 731 mmHg 83%
    02:00 +7°C° 0 mm 5 mps 732 mmHg 82%
    03:00 +7°C° 0 mm 5 mps 732 mmHg 80%
    04:00 +7°C° 0 mm 6 mps 732 mmHg 78%
    05:00 +5°C° 0 mm 6 mps 732 mmHg 76%
    06:00 +5°C° 0 mm 6 mps 733 mmHg 75%
    07:00 +6°C° 0 mm 5 mps 733 mmHg 74%
    08:00 +5°C° 0 mm 6 mps 734 mmHg 68%
    09:00 +7°C° 0 mm 6 mps 734 mmHg 62%
    10:00 +7°C° 0 mm 6 mps 735 mmHg 56%
    11:00 +8°C° 0 mm 5 mps 735 mmHg 54%
    12:00 +8°C° 0 mm 5 mps 735 mmHg 52%
    13:00 +8°C° 0 mm 4 mps 735 mmHg 50%
    14:00 +9°C° 0 mm 3 mps 735 mmHg 52%
    15:00 +8°C° 0 mm 3 mps 735 mmHg 54%
    16:00 +8°C° 0 mm 2 mps 735 mmHg 56%
    17:00 +7°C° 0 mm 2 mps 736 mmHg 58%
    18:00 +8°C° 0 mm 1 mps 736 mmHg 61%
    19:00 +8°C° 0 mm 1 mps 736 mmHg 63%
    20:00 +7°C° 0 mm 1 mps 737 mmHg 65%
    21:00 +7°C° 0 mm 1 mps 737 mmHg 67%
    22:00 +7°C° 0 mm 1 mps 737 mmHg 69%
    23:00 +7°C° 0.1 mm 1 mps 737 mmHg 71%

    28 October, Sunday

    Time Temperature Precipitation Wind Pressure Humidity
    00:00 +7°C° 0.1 mm 1 mps 737 mmHg 73%
    01:00 +6°C° 0.1 mm 1 mps 737 mmHg 75%
    02:00 +5°C° 0.2 mm 2 mps 737 mmHg 76%
    03:00 +5°C° 0.2 mm 2 mps 737 mmHg 78%
    04:00 +5°C° 0.2 mm 2 mps 737 mmHg 79%
    05:00 +5°C° 0.3 mm 2 mps 737 mmHg 80%
    06:00 +4°C° 0.3 mm 3 mps 737 mmHg 80%
    07:00 +4°C° 0.3 mm 3 mps 737 mmHg 81%
    08:00 +4°C° 0.4 mm 4 mps 737 mmHg 80%
    09:00 +3°C° 0.4 mm 5 mps 737 mmHg 79%
    10:00 +5°C° 0.4 mm 5 mps 737 mmHg 78%
    11:00 +5°C° 0.3 mm 5 mps 737 mmHg 80%
    12:00 +5°C° 0.3 mm 5 mps 737 mmHg 81%
    13:00 +3°C° 0.3 mm 5 mps 737 mmHg 83%
    14:00 +3°C° 1 mm 5 mps 736 mmHg 85%
    15:00 +3°C° 1 mm 5 mps 736 mmHg 87%
    16:00 +3°C° 1 mm 5 mps 736 mmHg 89%
    17:00 +3°C° 1.3 mm 5 mps 736 mmHg 90%
    18:00 +3°C° 1.3 mm 5 mps 736 mmHg 91%
    19:00 +3°C° 1.3 mm 5 mps 736 mmHg 92%
    20:00 +4°C° 1.7 mm 4 mps 735 mmHg 92%
    21:00 +4°C° 1.7 mm 4 mps 735 mmHg 93%
    22:00 +4°C° 1.7 mm 4 mps 735 mmHg 93%
    23:00 +5°C° 1 mm 4 mps 735 mmHg 94%

    29 October, Monday

    Time Temperature Precipitation Wind Pressure Humidity
    00:00 +5°C° 1 mm 4 mps 735 mmHg 94%
    01:00 +5°C° 1 mm 4 mps 734 mmHg 94%
    02:00 +5°C° 0.7 mm 3 mps 734 mmHg 94%
    03:00 +5°C° 0.7 mm 3 mps 734 mmHg 94%
    04:00 +5°C° 0.7 mm 3 mps 733 mmHg 94%
    05:00 +5°C° 0.6 mm 3 mps 733 mmHg 94%
    06:00 +5°C° 0.6 mm 3 mps 733 mmHg 94%
    07:00 +5°C° 0.6 mm 3 mps 733 mmHg 94%
    08:00 +5°C° 0.6 mm 3 mps 733 mmHg 94%
    09:00 +7°C° 0.6 mm 3 mps 733 mmHg 93%
    10:00 +7°C° 0.6 mm 3 mps 733 mmHg 92%
    11:00 +7°C° 1.1 mm 3 mps 733 mmHg 93%
    12:00 +7°C° 1.1 mm 3 mps 733 mmHg 93%
    13:00 +7°C° 1.1 mm 3 mps 733 mmHg 93%
    14:00 +7°C° 0.7 mm 3 mps 733 mmHg 93%
    15:00 +7°C° 0.7 mm 3 mps 733 mmHg 93%
    16:00 +7°C° 0.7 mm 3 mps 733 mmHg 94%
    17:00 +7°C° 0.2 mm 3 mps 734 mmHg 93%
    18:00 +5°C° 0.2 mm 3 mps 734 mmHg 93%
    19:00 +5°C° 0.2 mm 3 mps 735 mmHg 92%
    20:00 +5°C° 0.1 mm 3 mps 735 mmHg 92%
    21:00 +4°C° 0.1 mm 3 mps 735 mmHg 92%
    22:00 +4°C° 0.1 mm 4 mps 735 mmHg 91%
    23:00 +4°C° 0 mm 4 mps 736 mmHg 91%

    30 October, Tuesday

    Time Temperature Precipitation Wind Pressure Humidity
    00:00 +4°C° 0 mm 4 mps 736 mmHg 91%
    01:00 +3°C° 0 mm 5 mps 736 mmHg 91%
    02:00 +3°C° 0.2 mm 5 mps 736 mmHg 91%
    03:00 +3°C° 0.2 mm 5 mps 736 mmHg 91%
    04:00 +3°C° 0.2 mm 5 mps 736 mmHg 91%
    05:00 +3°C° 0.3 mm 5 mps 736 mmHg 91%
    06:00 +3°C° 0.3 mm 6 mps 736 mmHg 91%
    07:00 +3°C° 0.3 mm 6 mps 736 mmHg 91%
    08:00 +3°C° 0.1 mm 6 mps 736 mmHg 90%
    09:00 +3°C° 0.1 mm 6 mps 736 mmHg 90%
    10:00 +4°C° 0.1 mm 6 mps 736 mmHg 89%
    11:00 +4°C° 0 mm 6 mps 736 mmHg 89%
    12:00 +4°C° 0 mm 6 mps 736 mmHg 88%
    13:00 +4°C° 0 mm 6 mps 736 mmHg 88%
    14:00 +4°C° 0 mm 6 mps 735 mmHg 89%
    15:00 +4°C° 0 mm 6 mps 735 mmHg 89%
    16:00 +4°C° 0 mm 7 mps 735 mmHg 90%
    17:00 +4°C° 0.4 mm 7 mps 735 mmHg 91%
    18:00 +4°C° 0.4 mm 7 mps 734 mmHg 91%
    19:00 +4°C° 0.4 mm 8 mps 734 mmHg 91%
    20:00 +4°C° 1.4 mm 8 mps 733 mmHg 91%
    21:00 +5°C° 1.4 mm 9 mps 732 mmHg 91%
    22:00 +5°C° 1.4 mm 9 mps 732 mmHg 90%
    23:00 +5°C° 0.4 mm 8 mps 732 mmHg 91%
    Show more